www.pogodaiklimat.ru

ПОГОДА в Нюрбе

  • Прогноз погоды в Нюрбе
  • Монитор погоды в Нюрбе
  • Климат города

АРХИВ ПОГОДЫ в Нюрбе

Время (UTC), дата Ветер
(напр.,м/с)
 
Видим.   Явления Облачность Т
(С)
Тd
(С)
f
(%)
Тe
(С)
Тes
(С)
Комфортность P
(гПа)
Po
(гПа)
Тmin
(С)
Tmax
(С)
R
(мм)
S
(см)
18 9.01 ЮЗ 2 4000 м слабый снег 10/0
[As op]
-25.5 -28.6 75 -32 -32 опасность
обморожения
1020.7 1004.1
21 9.01 СЗ 2 4000 м слабый снег 10/0
[As op]
-19.5 -22.1 80 -25 -25 1020.1 1003.9
00 10.01 СЗ 4 4000 м слабый снег 10/0
[As op]
-17.1 -20.5 75 -25 -25 1020.2 1004.1 -33.6 1 29
03 10.01 С 3 4000 м слабый снег 10/0
[As op]
-17.7 -21.0 75 -25 -25 1021.4 1005.3
06 10.01 С 3 2000 м слабый снег 10/0
[As op Cs]
-18.7 -22.8 70 -26 -26 1023.5 1007.3
09 10.01 С 3 50 км {снег} 10/0
[As trans Cs]
-20.4 -23.7 75 -28 -28 1026.0 1009.6
12 10.01 С 2 50 км {снег} 10/0
[As op]
-20.8 -24.1 75 -27 -27 1027.9 1011.4 -17.1 0.7
15 10.01 С 2 20 км слабый снег 10/0
[As op]
-21.2 -24.4 75 -27 -27 1029.9 1013.4
18 10.01 штиль 0 50 км в посл. час снег 5/0
[As trans Cs]
-28.8 -32.5 70 -29 -29 1032.3 1015.2
21 10.01 штиль 0 50 км 10/0
[As op]
-27.2 -31.0 70 -27 -27 1032.8 1015.9
00 11.01 штиль 0 20 км слабый снег 10/0
[As op Cs]
-25.5 -28.6 75 -26 -26 1034.0 1017.2 -29.0 0.2 29
03 11.01 СВ 2 20 км слабый снег 8/0
[As trans Cs]
-30.9 -34.5 70 -39 -38 опасность
обморожения
1035.9 1018.6 -30.9
06 11.01 СВ 1 20 км слабый снег 10/0
[As trans Cs]
-31.4 -35.0 70 -36 -36 опасность
обморожения
1036.4 1019.1
09 11.01 СВ 3 20 км слабый снег 10/0
[As op Cs]
-31.7 -35.4 70 -42 -42 опасность
обморожения
1038.0 1020.6
12 11.01 СВ 3 20 км слабый снег 10/0
[As trans Cs]
-34.5 -38.1 70 -45 -45 опасность
обморожения
1040.0 1022.4 -25.5 0.3
15 11.01 СВ 2 50 км {снег} 10/0
[Cs]
-37.4 -40.7 71 -46 -46 опасность
обморожения
1041.5 1023.7
18 11.01 СВ 1 50 км {снег} 4/0
[Ci fib]
-39.8 -43.3 69 -45 -45 опасность
обморожения
1042.6 1024.6
21 11.01 СВ 1 50 км 3/0
[Ci fib]
-41.3 -44.4 72 -47 -47 опасность
обморожения
1043.3 1025.2
00 12.01 штиль 0 50 км 3/0
[Ci fib]
-42.8 -46.1 70 -43 -43 опасность
обморожения
1044.5 1026.2 -42.8 0.0 29
03 12.01 СВ 1 20 км 3/0
[Ci fib]
-42.8 -46.1 70 -48 -48 опасность
обморожения
1045.6 1027.3 -43.6
06 12.01 В 1 20 км 4/0
[Ci fib]
-41.1 -44.4 70 -46 -46 опасность
обморожения
1045.7 1027.6
09 12.01 штиль 0 1000 м дымка 3/0
[Ci fib]
-42.5 -45.5 72 -43 -43 опасность
обморожения
1046.4 1028.0
12 12.01 З 1 2000 м дымка 6/0
[Ci fib]
-42.1 -45.5 69 -48 -48 опасность
обморожения
1046.6 1028.3 -41.1
15 12.01 ЮЗ 1 2000 м дымка 6/0
[Ci fib]
-41.8 -44.9 72 -47 -47 опасность
обморожения
1046.5 1028.2
18 12.01 ЮЗ 2 2000 м дымка 3/0
[Ci fib]
-42.4 -45.5 71 -52 -52 опасность
обморожения
1046.1 1027.8
21 12.01 З 1 4000 м дымка 3/0
[Ci fib]
-42.6 -46.1 68 -48 -48 опасность
обморожения
1046.2 1027.8
00 13.01 ЮЗ 2 2000 м дымка ясно -42.6 -46.1 68 -52 -52 опасность
обморожения
1046.2 1027.8 -42.7 29
03 13.01 З 2 2000 м дымка ясно -41.7 -44.9 71 -51 -51 опасность
обморожения
1046.6 1028.3
06 13.01 З 2 20 км ясно -38.0 -41.5 69 -47 -47 опасность
обморожения
1045.8 1027.8
09 13.01 ЮЗ 1 2000 м дымка 3/0
[As trans]
-39.5 -42.9 70 -45 -45 опасность
обморожения
1046.3 1028.2
12 13.01 ЮЗ 1 2000 м дымка 4/0
[Ci fib]
-39.4 -42.9 69 -45 -45 опасность
обморожения
1046.6 1028.5 -38.0
15 13.01 З 2 2000 м дымка 5/0
[Ci fib]
-38.8 -42.4 69 -48 -48 опасность
обморожения
1046.9 1028.8
18 13.01 ЮЗ 1 2000 м дымка 5/0
[Ci fib]
-38.5 -42.0 69 -44 -44 опасность
обморожения
1046.9 1028.8
21 13.01 ЮЗ 2 4000 м дымка 10/0
[Ci fib]
-37.0 -40.4 70 -46 -46 опасность
обморожения
1046.7 1028.8
00 14.01 ЮЗ 1 2000 м дымка 6/0
[Ci fib]
-38.6 -42.0 70 -44 -44 опасность
обморожения
1047.6 1029.5 -39.4 29
03 14.01 З 1 2000 м дымка 10/0
[Ci fib]
-38.1 -41.5 70 -43 -43 опасность
обморожения
1047.3 1029.3
06 14.01 штиль 0 20 км 6/0
[Ci fib]
-35.6 -39.0 71 -36 -36 опасность
обморожения
1046.9 1029.1
09 14.01 штиль 0 50 км 6/0
[Ci fib]
-38.8 -42.4 69 -39 -39 опасность
обморожения
1047.7 1029.6
12 14.01 штиль 0 4000 м дымка 4/0
[Ci fib]
-40.6 -43.8 71 -41 -41 опасность
обморожения
1048.0 1029.8 -35.6
15 14.01 штиль 0 4000 м дымка 4/0
[Ci fib]
-41.4 -44.9 69 -41 -41 опасность
обморожения
1048.0 1029.8
18 14.01 штиль 0 4000 м дымка 4/0
[Ci fib]
-43.0 -46.1 71 -43 -43 опасность
обморожения
1048.2 1029.8
21 14.01 штиль 0 4000 м дымка 4/0
[Ci fib]
-43.5 -46.8 70 -44 -44 опасность
обморожения
1048.3 1029.8
00 15.01 штиль 0 4000 м дымка ясно -43.4 -46.8 69 -43 -43 опасность
обморожения
1047.7 1029.3 -44.0 29
03 15.01 СВ 1 20 км 4/0
[As trans Ci fib]
-41.8 -44.9 72 -47 -47 опасность
обморожения
1047.0 1028.7
06 15.01 СВ 1 4000 м дымка 6/0
[As trans Ci fib]
-40.7 -43.8 72 -46 -46 опасность
обморожения
1046.4 1028.2
09 15.01 штиль 0 1000 м дымка 6/0
[As trans Ci fib]
-42.2 -45.5 70 -42 -42 опасность
обморожения
1045.6 1027.4
12 15.01 СВ 1 2000 м дымка 6/0
[Ci fib]
-41.8 -44.9 72 -47 -47 опасность
обморожения
1045.5 1027.3 -40.7
15 15.01 СВ 1 2000 м дымка 4/0
[Ci fib]
-42.1 -45.5 69 -48 -48 опасность
обморожения
1044.3 1026.1
18 15.01 СВ 1 2000 м дымка 4/0
[Ci fib]
-42.3 -45.5 71 -48 -48 опасность
обморожения
1043.6 1025.6
21 15.01 СВ 1 2000 м дымка 4/0
[Ci fib]
-41.3 -44.4 72 -47 -47 опасность
обморожения
1043.0 1024.9
00 16.01 штиль 0 2000 м дымка 6/0
[Ac trans Ci fib]
-41.2 -44.4 71 -41 -41 опасность
обморожения
1043.1 1025.0 -42.4 29
03 16.01 штиль 0 4000 м дымка 6/0
[Ac trans Ci fib]
-40.9 -44.4 69 -41 -41 опасность
обморожения
1043.3 1025.2
06 16.01 З 1 500 м туман 6/0
[Ac trans Ci fib]
-40.1 -43.3 71 -45 -45 опасность
обморожения
1042.6 1024.5
09 16.01 штиль 0 1000 м дымка {туман} 5/0
[Ac trans Ci fib]
-40.6 -43.8 71 -41 -41 опасность
обморожения
1042.7 1024.6
12 16.01 ЮЗ 1 1000 м дымка {туман} 6/0
[Ci fib]
-40.6 -43.8 71 -46 -46 опасность
обморожения
1042.9 1024.8 -40.1
15 16.01 ЮЗ 1 1000 м дымка 3/0
[Ci fib]
-41.5 -44.9 69 -47 -47 опасность
обморожения
1042.5 1024.3

 

Местоположение метеостанции Нюрба (Якутия, Россия): широта 63.28 долгота 118.30 высота над уровнем моря 119 м.

В архиве по умолчанию представлена погода в Нюрбе за последнюю неделю. Архивные данные за месяц целиком и за предыдущие месяцы, начиная с января 2011 года, Вы можете получить, выбрав интересующий диапазон дат из раскрывающегося списка и нажав кнопку "Ввод!".

Внимание! Время в таблицах - всемирное. Для получения местного времени необходимо прибавить поправку, которая в Нюрбе равна 9 ч.

Ветер - указаны скорость ветра в м/с - средняя за 10 мин, порывы в срок и между сроками (в фигурных скобках) и направление, откуда дует ветер: С - северный, СВ - северо-восточный, В - восточный, ЮВ - юго-восточный, Ю - южный, ЮЗ - юго-западный, З - западный, СЗ - северо-западный.
Видимость - горизонтальная дальность видимости в метрах или километрах. При видимости от 1 до 10 км при отсутствии осадков обычно наблюдается дымка, при ухудшении видимости до 1 км и менее - туман. В сухую погоду видимость может ухудшаться дымом, пылью или мглою.
Явления - указаны атмосферные явления, наблюдавшиеся в срок или в последний час перед сроком; фигурными скобками обозначены явления, наблюдавшиеся между сроками (за 1-3 часа до срока); квадратными скобками обозначены град или гололедные отложения с указанием их диаметра в мм.
Облачность - указаны через наклонную черту общая и нижняя облачность в баллах и высота нижней границы облаков в метрах; квадратными скобками обозначены формы облаков: Ci - перистые, Cs - перисто-слоистые, Cc - перисто-кучевые, Ac - высококучевые, As - высокослоистые, Sc - слоисто-кучевые, Ns - слоисто-дождевые, Cu - кучевые, Cb - кучево-дождевые. Подробнее классификацию облаков см. в Атласе облаков (PDF).
T - Температура воздуха - температура, измеренная на высоте 2 м над землей.
Td - Температура точки росы - температура, при понижении до которой содержащийся в воздухе водяной пар достигнет насыщения.
f - Относительная влажность воздуха - влажноcть воздуха, измеренная на высоте 2 м над землей.
Te - Эффективная температура - температура, которую ощущает одетый по сезону человек в тени. Характеристика душности погоды. При расчете учитывается влияние влажности воздуха и скорости ветра на теплоощущения человека.
Tes - Эффективная температура на солнце - температура, которую ощущает человек, с поправкой на солнечный нагрев. Характеристика знойности погоды. Зависит от высоты солнца над горизонтом, облачности и скорости ветра. Ночью, в пасмурную погоду, а также при ветре 12 м/с и более поправка равна нулю.
P - Атмосферное давление - приведенное к уровню моря атмосферное давление.
Po - Атмосферное давление - измеренное на уровне метеостанции атмосферное давление.
Tmin - Минимальная температура - минимум температуры воздуха на высоте 2 м над землей.
Tmax - Максимальная температура - максимум температуры воздуха на высоте 2 м над землей.
R - Количество осадков - Количество выпавших осадков, мм. При наведении курсора мыши на число - период времени, за который выпало указанное количество осадков.
S - Снежный покров - Высота снежного покрова, см. При наведении курсора мыши на число - состояние снежного покрова и степень покрытия местности в баллах.